Prague, Czech Republic

2:55 AM CET on December 15, 2017 (GMT +0100)
Ruzyne

Weather History for LKPR - January, 2013

Change the Weather History Date:

Sunday, January 13, 2013

  Actual Average Record
Temperature  
Mean Temperature 22 °F -  
Max Temperature 26 °F 35 °F 52 °F (2015)
Min Temperature 17 °F 23 °F 10 °F (2009)
Degree Days  
Heating Degree Days 44    
Moisture  
Dew Point 20 °F    
Average Humidity 84    
Maximum Humidity 93    
Minimum Humidity 69    
Precipitation  
Precipitation 0.00 in 0.03 in - ()
Sea Level Pressure  
Sea Level Pressure 30.02 in    
Wind  
Wind Speed 5 mph ()    
Max Wind Speed 13 mph    
Max Gust Speed -    
Visibility 6.5 miles    
Events Snow    
Averages and records for this station are not official NWS values.
T = Trace of Precipitation, MM = Missing Value Source: Averaged Metar Reports

Daily Weather History Graph

Daily Weather History Graph

Search for Another Location

Airport or City:

Trip Planner

Search our weather history database for the weather conditions in past years. The results will help you decide how hot, cold, wet, or windy it might be!

Date:

Astronomy

Jan. 13, 2013 Rise Set
Actual Time 7:57 AM CET 4:26 PM CET
Civil Twilight 7:20 AM CET 5:03 PM CET
Nautical Twilight 6:39 AM CET 5:44 PM CET
Astronomical Twilight 6:00 AM CET 6:23 PM CET
Moon 8:29 AM CET (1/13) 7:02 PM CET (1/13)
Length of Visible Light 9h 43m
Length of Day
8h 29m
Waxing Crescent, 4% of the Moon is Illuminated
Jan 13
Waxing Crescent
Jan 19
First Quarter
Jan 27
Full
Feb 3
Last Quarter
Feb 10
New

Hourly Weather History & Observations

Time (CET) Temp. Windchill Dew Point Humidity Pressure Visibility Wind Dir Wind Speed Gust Speed Precip Events Conditions
12:00 AM 21.2 °F 14.9 °F 17.6 °F 86% 30.01 in 6.2 mi WSW 4.6 mph - N/A   Mostly Cloudy
12:30 AM 21.2 °F 12.6 °F 17.6 °F 86% 30.01 in 6.2 mi SW 6.9 mph - N/A   Mostly Cloudy
1:00 AM 22 °F - 17 °F 75% 30.12 in 12 mi WSW 6.7 mph - -   Mostly Cloudy
1:00 AM 23.0 °F 15.8 °F 17.6 °F 80% 30.04 in 6.2 mi SW 5.8 mph - N/A   Overcast
1:30 AM 23.0 °F - 19.4 °F 86% 30.01 in 6.2 mi WSW 2.3 mph - N/A   Mostly Cloudy
2:00 AM 23.0 °F 17.0 °F 19.4 °F 86% 30.04 in 6.2 mi SW 4.6 mph - N/A Snow Light Snow Showers
2:30 AM 23.0 °F 15.8 °F 19.4 °F 86% 30.04 in 6.2 mi SW 5.8 mph - N/A Snow Light Snow
3:00 AM 23.0 °F 17.0 °F 19.4 °F 86% 30.04 in 6.2 mi West 4.6 mph - N/A Snow Light Snow
3:30 AM 23.0 °F 17.0 °F 19.4 °F 86% 30.01 in 6.2 mi SW 4.6 mph - N/A Snow Light Snow
4:00 AM 23.0 °F 15.8 °F 19.4 °F 86% 30.01 in 6.2 mi SW 5.8 mph - N/A Snow Light Snow
4:30 AM 23.0 °F 18.4 °F 19.4 °F 86% 30.01 in 6.2 mi SW 3.5 mph - N/A   Mostly Cloudy
5:00 AM 23.0 °F 15.8 °F 19.4 °F 86% 30.01 in 6.2 mi SW 5.8 mph - N/A   Overcast
5:30 AM 23.0 °F 15.8 °F 19.4 °F 86% 30.01 in 6.2 mi SW 5.8 mph - N/A   Overcast
6:00 AM 23.0 °F 15.8 °F 21.2 °F 93% 30.01 in 6.2 mi SW 5.8 mph - N/A   Overcast
6:30 AM 23.0 °F 17.0 °F 21.2 °F 93% 30.01 in 6.2 mi WSW 4.6 mph - N/A Snow Light Snow
7:00 AM 24 °F - 20 °F 81% 30.11 in 7 mi WSW 4.5 mph - - Snow Light Snow
7:00 AM 23.0 °F 18.4 °F 21.2 °F 93% 30.01 in 6.2 mi SW 3.5 mph - N/A Snow Light Snow
7:30 AM 24.8 °F - 21.2 °F 86% 30.01 in 6.2 mi West 2.3 mph - N/A Snow Light Snow
8:00 AM 24.8 °F - 21.2 °F 86% 30.01 in 6.2 mi Calm Calm - N/A Snow Light Snow
8:30 AM 24.8 °F - 21.2 °F 86% 30.04 in 6.2 mi Calm Calm - N/A Snow Light Snow
9:00 AM 24.8 °F - 21.2 °F 86% 30.04 in 6.2 mi Variable 2.3 mph - N/A   Mostly Cloudy
9:30 AM 24.8 °F 20.5 °F 21.2 °F 86% 30.04 in 6.2 mi NNE 3.5 mph - N/A   Mostly Cloudy
10:00 AM 24.8 °F 19.1 °F 21.2 °F 86% 30.04 in 6.2 mi NE 4.6 mph - N/A   Mostly Cloudy
10:30 AM 24.8 °F 19.1 °F 23.0 °F 93% 30.04 in 6.2 mi ENE 4.6 mph - N/A   Mostly Cloudy
11:00 AM 24.8 °F 17.9 °F 23.0 °F 93% 30.04 in 6.2 mi East 5.8 mph - N/A   Mostly Cloudy
11:25 AM 26.6 °F 20.0 °F 23.0 °F 86% 30.04 in 6.2 mi East 5.8 mph - N/A   Mostly Cloudy
11:30 AM 26.6 °F 20.0 °F 23.0 °F 86% 30.04 in 6.2 mi East 5.8 mph - N/A   Mostly Cloudy
12:00 PM 26.6 °F 21.2 °F 21.2 °F 80% 30.01 in 6.2 mi NE 4.6 mph - N/A   Mostly Cloudy
12:30 PM 26.6 °F 20.0 °F 21.2 °F 80% 30.01 in 6.2 mi NNE 5.8 mph - N/A   Mostly Cloudy
1:00 PM 26 °F - 21 °F 72% 30.10 in 12 mi ENE 6.7 mph - -   Partly Cloudy
1:00 PM 26.6 °F 20.0 °F 21.2 °F 80% 30.01 in 6.2 mi NNE 5.8 mph - N/A   Mostly Cloudy
1:30 PM 24.8 °F 17.9 °F 19.4 °F 80% 30.01 in 6.2 mi East 5.8 mph - N/A   Mostly Cloudy
2:00 PM 24.8 °F 17.9 °F 19.4 °F 80% 30.01 in 6.2 mi ENE 5.8 mph - N/A   Mostly Cloudy
2:30 PM 24.8 °F 17.9 °F 21.2 °F 86% 30.01 in 6.2 mi ENE 5.8 mph - N/A   Mostly Cloudy
3:00 PM 24.8 °F 16.1 °F 19.4 °F 80% 30.01 in 6.2 mi NE 8.1 mph - N/A   Mostly Cloudy
3:30 PM 24.8 °F 16.1 °F 19.4 °F 80% 30.01 in 6.2 mi NE 8.1 mph - N/A   Mostly Cloudy
4:00 PM 24.8 °F 16.9 °F 19.4 °F 80% 30.01 in 6.2 mi NE 6.9 mph - N/A   Mostly Cloudy
4:30 PM 24.8 °F 16.1 °F 21.2 °F 86% 30.01 in 6.2 mi NE 8.1 mph - N/A   Mostly Cloudy
5:00 PM 24.8 °F 16.9 °F 21.2 °F 86% 30.01 in 6.2 mi NE 6.9 mph - N/A   Mostly Cloudy
5:30 PM 24.8 °F 16.1 °F 19.4 °F 80% 30.01 in 6.2 mi East 8.1 mph - N/A   Mostly Cloudy
6:00 PM 24.8 °F 16.1 °F 19.4 °F 80% 30.01 in 6.2 mi ENE 8.1 mph - N/A   Mostly Cloudy
6:30 PM 24.8 °F 16.9 °F 19.4 °F 80% 30.01 in 6.2 mi East 6.9 mph - N/A   Mostly Cloudy
7:00 PM 24 °F - 18 °F 69% 30.11 in 12 mi East 6.7 mph - -   Mostly Cloudy
7:00 PM 24.8 °F 17.9 °F 19.4 °F 80% 30.01 in 6.2 mi ENE 5.8 mph - N/A   Mostly Cloudy
7:30 PM 24.8 °F 17.9 °F 17.6 °F 74% 30.01 in 6.2 mi East 5.8 mph - N/A   Mostly Cloudy
8:00 PM 24.8 °F 16.1 °F 19.4 °F 80% 30.01 in 6.2 mi NE 8.1 mph - N/A   Mostly Cloudy
8:30 PM 24.8 °F 15.3 °F 19.4 °F 80% 30.01 in 6.2 mi ENE 9.2 mph - N/A   Overcast
9:00 PM 24.8 °F 14.0 °F 19.4 °F 80% 30.01 in 6.2 mi ENE 11.5 mph - N/A Snow Light Snow
9:30 PM 24.8 °F 14.0 °F 21.2 °F 86% 30.01 in 6.2 mi East 11.5 mph - N/A Snow Light Snow
10:00 PM 23.0 °F 11.7 °F 19.4 °F 86% 30.01 in 6.2 mi East 11.5 mph - N/A Snow Light Snow
10:30 PM 23.0 °F 11.7 °F 19.4 °F 86% 30.01 in 6.2 mi East 11.5 mph - N/A Snow Light Snow
11:00 PM 23.0 °F 11.7 °F 19.4 °F 86% 30.01 in 6.2 mi East 11.5 mph - N/A Snow Light Snow
11:30 PM 23.0 °F 11.1 °F 19.4 °F 86% 30.01 in 6.2 mi East 12.7 mph - N/A Snow Light Snow